Weather History for Kalamazoo, MI

Change the Weather History Date:

Monday, August 12, 2013

  Actual Average Record
Temperature  
Mean Temperature 71 °F 71 °F  
Max Temperature 79 °F 82 °F 93 °F (1988)
Min Temperature 63 °F 61 °F 45 °F (1967)
Degree Days  
Heating Degree Days 0 0  
Month to date heating degree days 5 0  
Since 1 June heating degree days 61 53  
Since 1 July heating degree days 22 5  
Cooling Degree Days 6 7  
Month to date cooling degree days 47 84  
Year to date cooling degree days 507 510  
Since 1 June cooling degree days 427 469  
Growing Degree Days 22 (Base 50)    
Moisture  
Dew Point 64 °F    
Average Humidity 80    
Maximum Humidity 93    
Minimum Humidity 67    
Precipitation  
Precipitation 1.47 in 0.13 in 1.47 in (2013)
Month to date precipitation 3.95 1.29  
Year to date precipitation 28.84 21.01  
Sea Level Pressure  
Sea Level Pressure 29.97 in    
Wind  
Wind Speed 4 mph (West)    
Max Wind Speed 18 mph    
Max Gust Speed 23 mph    
Visibility 7 miles    
Events Fog , Rain , Thunderstorm    
T = Trace of Precipitation, MM = Missing Value Source: NWS Daily Summary

Daily Weather History Graph

Daily Weather History Graph

Search for Another Location

Airport:

Trip Planner

Search our weather history database for the weather conditions in past years. The results will help you decide how hot, cold, wet, or windy it might be!

Date:

Astronomy

Aug. 12, 2013 Rise Set
Actual Time 6:46 AM EDT 8:46 PM EDT
Civil Twilight 6:16 AM EDT 9:17 PM EDT
Nautical Twilight 5:38 AM EDT 9:54 PM EDT
Astronomical Twilight 4:58 AM EDT 10:34 PM EDT
Moon 12:44 PM EDT (8/12) 11:31 PM EDT (8/12)
Length of Visible Light 15h 01m
Length of Day
14h 00m
Waxing Crescent, 31% of the Moon is Illuminated
Aug 12
Waxing Crescent
Aug 14
First Quarter
Aug 20
Full
Aug 28
Last Quarter
Sep 5
New

Hourly Weather History & Observations

Time (EDT) Temp. Dew Point Humidity Pressure Visibility Wind Dir Wind Speed Gust Speed Precip Events Conditions
12:53 AM 66.9 °F 61.0 °F 81% 30.06 in 10.0 mi SSE 3.5 mph - N/A   Scattered Clouds
1:53 AM 66.9 °F 60.1 °F 79% 30.06 in 10.0 mi Calm Calm - N/A   Mostly Cloudy
2:53 AM 66.9 °F 60.1 °F 79% 30.04 in 10.0 mi South 4.6 mph - N/A   Overcast
3:53 AM 66.0 °F 62.1 °F 87% 30.04 in 6.0 mi SW 6.9 mph - 0.04 in Rain Rain
4:53 AM 66.0 °F 63.0 °F 90% 30.03 in 10.0 mi Calm Calm - 0.02 in   Overcast
5:53 AM 66.9 °F 64.0 °F 90% 30.02 in 10.0 mi Calm Calm - N/A   Overcast
6:53 AM 66.9 °F 64.0 °F 90% 30.03 in 10.0 mi Calm Calm - 0.01 in   Overcast
7:23 AM 64.4 °F 62.6 °F 94% 30.06 in 4.0 mi NNW 18.4 mph - 0.10 in Rain Heavy Rain
7:29 AM 64.4 °F 62.6 °F 94% 30.06 in 0.5 mi NW 11.5 mph 23.0 mph 0.24 in Fog , Rain Heavy Rain
7:43 AM 64.4 °F 62.6 °F 94% 30.04 in 7.0 mi NW 3.5 mph - 0.34 in Rain Light Rain
7:53 AM 64.9 °F 62.1 °F 90% 30.04 in 10.0 mi Calm Calm - 0.34 in   Overcast
8:53 AM 66.0 °F 63.0 °F 90% 30.03 in 10.0 mi Calm Calm - 0.04 in Rain Light Rain
9:02 AM 64.4 °F 62.6 °F 94% 30.03 in 2.0 mi Calm Calm - 0.10 in Rain Heavy Rain
9:07 AM 64.4 °F 62.6 °F 94% 30.03 in 1.2 mi NE 3.5 mph - 0.18 in Rain Heavy Rain
9:14 AM 64.4 °F 62.6 °F 94% 30.03 in 1.2 mi NNE 3.5 mph - 0.36 in Rain , Thunderstorm Heavy Thunderstorms and Rain
9:53 AM 64.9 °F 63.0 °F 93% 30.02 in 2.0 mi South 5.8 mph - 0.56 in Rain Rain
10:53 AM 66.0 °F 64.0 °F 93% 30.01 in 8.0 mi South 6.9 mph - 0.36 in   Overcast
11:53 AM 68.0 °F 66.0 °F 93% 30.00 in 5.0 mi Variable 5.8 mph - 0.01 in   Mostly Cloudy
12:53 PM 71.1 °F 66.0 °F 84% 29.99 in 10.0 mi South 9.2 mph - N/A   Partly Cloudy
1:53 PM 73.0 °F 66.9 °F 81% 29.98 in 10.0 mi South 5.8 mph - N/A   Mostly Cloudy
2:53 PM 75.0 °F 66.9 °F 76% 29.95 in 10.0 mi South 6.9 mph - N/A   Mostly Cloudy
3:53 PM 77.0 °F 66.9 °F 71% 29.92 in 10.0 mi SW 9.2 mph - N/A   Scattered Clouds
4:53 PM 79.0 °F 66.9 °F 66% 29.91 in 10.0 mi West 3.5 mph - N/A   Scattered Clouds
5:53 PM 77.0 °F 66.9 °F 71% 29.89 in 10.0 mi NNW 6.9 mph - N/A   Scattered Clouds
6:53 PM 75.0 °F 66.9 °F 76% 29.87 in 10.0 mi North 9.2 mph - N/A   Scattered Clouds
7:53 PM 73.0 °F 64.9 °F 76% 29.87 in 10.0 mi Calm Calm - N/A   Mostly Cloudy
8:06 PM 73.4 °F 64.4 °F 73% 29.89 in 10.0 mi NW 4.6 mph - 0.01 in Rain , Thunderstorm Light Thunderstorms and Rain
8:08 PM 73.4 °F 64.4 °F 73% 29.89 in 2.5 mi NW 5.8 mph - 0.01 in Rain , Thunderstorm Light Thunderstorms and Rain
8:39 PM 69.8 °F 66.2 °F 88% 29.88 in 8.0 mi Calm Calm - 0.08 in Rain Light Rain
8:53 PM 69.1 °F 66.0 °F 90% 29.87 in 10.0 mi Calm Calm - 0.08 in   Overcast
9:53 PM 68.0 °F 66.0 °F 93% 29.90 in 7.0 mi Calm Calm - 0.00 in   Mostly Cloudy
10:30 PM 68.0 °F 66.2 °F 94% 29.91 in 9.0 mi WNW 4.6 mph - N/A   Mostly Cloudy
10:45 PM 68.0 °F 66.2 °F 94% 29.91 in 8.0 mi WNW 3.5 mph - N/A   Scattered Clouds
10:53 PM 68.0 °F 64.9 °F 90% 29.90 in 8.0 mi WNW 3.5 mph - N/A   Partly Cloudy
11:37 PM 66.2 °F 64.4 °F 94% 29.91 in 2.0 mi Calm Calm - N/A   Clear
11:41 PM 66.2 °F 64.4 °F 94% 29.91 in 1.0 mi Calm Calm - N/A   Mist
11:48 PM 66.2 °F 64.4 °F 94% 29.91 in 0.5 mi Calm Calm - 0.01 in Fog Fog
11:53 PM 66.0 °F 64.0 °F 93% 29.91 in 0.2 mi North 4.6 mph - 0.01 in Fog Fog